This demonstration page uses our WeatherBlox Daily Observations layout. Learn more.

Left ArrowRight Arrow

44.8408, -93.29828

Hourly Observations for March 19, 2020

Temp ( °F °C ) Dew Point ( °F °C ) Humidity (%) Winds ( mph kmh ) Pressure ( in mb ) Visibility ( mi km ) Precip ( " mm )
12:53 am 00:53 Cloudy with Mist and Fog 40 4.4 37 2.8 89 89 SE 6 9 30.03 1017 6 10 0.00 0.00
1:48 am 01:48 Cloudy with Mist and Fog 39 4 37 3 93 93 SSE 8 13 30.07 1018 4 6 0.00 0.00
1:53 am 01:53 Cloudy with Mist and Fog 39 3.9 38 3.3 96 96 SSE 7 11 30.05 1018 4 6 0.00 0.00
2:12 am 02:12 Cloudy with Mist and Fog 39 3.9 38 3.3 96 96 SSE 6 9 30.07 1018 3 4 0.00 0.00
2:20 am 02:20 Cloudy with Mist and Fog 39 3.9 38 3.3 96 96 SE 6 9 30.06 1018 3 5 0.00 0.00
2:49 am 02:49 Cloudy with Mist and Fog 39 4 37 3 93 93 SE 5 7 30.05 1018 2 3 0.00 0.00
2:53 am 02:53 Cloudy with Mist and Fog 39 3.9 38 3.3 96 96 SE 5 7 30.04 1017 2 3 0.00 0.00
3:02 am 03:02 Cloudy with Mist and Fog 39 3.9 38 3.3 96 96 SE 5 7 30.05 1018 1 2 0.00 0.00
3:31 am 03:31 Cloudy with Mist and Fog 39 3.9 38 3.3 96 96 ESE 8 13 30.03 1017 2 3 0.00 0.00
3:44 am 03:44 Cloudy with Mist and Fog 39 3.9 38 3.3 96 96 SE 8 13 30.03 1017 2 3 0.00 0.00
3:53 am 03:53 Cloudy with Mist and Fog 39 3.9 38 3.3 96 96 SE 8 13 30.01 1016 2 2 0.00 0.00
4:04 am 04:04 Cloudy with Mist and Fog 39 3.9 38 3.3 96 96 ESE 7 11 30.01 1016 1 2 0.00 0.00
4:27 am 04:27 Cloudy with Mist and Fog 39 3.9 38 3.3 96 96 ESE 8 13 30.01 1016 2 2 0.00 0.00
4:53 am 04:53 Cloudy with Mist and Fog 39 3.9 38 3.3 96 96 SE 7 11 30.00 1016 2 3 0.00 0.00
5:25 am 05:25 Cloudy with Drizzle 38 3.3 38 3.3 100 100 SE 7 11 30.00 1016 3 4 0.00 0.00
5:53 am 05:53 Cloudy with Drizzle 39 3.9 37 2.8 93 93 ESE 10 17 29.97 1015 3 4 0.00 0.00
6:06 am 06:06 Cloudy with Drizzle 39 3.9 37 2.8 93 93 SE 8 13 29.99 1016 3 5 0.00 0.00
6:53 am 06:53 Cloudy with Light Rain 38 3.3 38 3.3 100 100 ESE 6 9 29.96 1015 4 6 0.00 0.00
7:35 am 07:35 Cloudy with Light Rain 39 3.9 37 2.8 93 93 NNE 7 11 29.97 1015 2 3 0.01 0.25
7:53 am 07:53 Cloudy with Drizzle 39 3.9 38 3.3 96 96 E 6 9 29.96 1015 2 3 0.02 0.51
8:06 am 08:06 Cloudy with Light Rain 39 3.9 37 2.8 93 93 ESE 8 13 29.98 1015 2 3 0.00 0.00
8:53 am 08:53 Cloudy with Drizzle 39 3.9 38 3.3 96 96 NE 5 7 29.95 1014 2 3 0.01 0.25
9:53 am 09:53 Cloudy with Drizzle 39 3.9 38 3.3 96 96 ENE 6 9 29.93 1014 2 3 0.01 0.25
10:53 am 10:53 Cloudy with Drizzle 40 4.4 39 3.9 97 97 ENE 3 6 29.94 1014 3 4 0.00 0.00
11:22 am 11:22 Cloudy with Light Rain 40 4.4 38 3.3 93 93 N 6 9 29.96 1015 2 2 0.01 0.25
11:53 am 11:53 Cloudy with Light Rain 40 4.4 38 3.3 93 93 NNE 7 11 29.93 1014 2 2 0.02 0.51
12:03 pm 12:03 Cloudy with Light Rain 40 4.4 38 3.3 93 93 NNE 8 13 29.94 1014 3 4 0.01 0.25
12:38 pm 12:38 Cloudy with Light Rain 39 3.9 38 3.3 96 96 N 8 13 29.93 1014 5 8 0.07 1.78
12:53 pm 12:53 Cloudy with Light Rain 40 4.4 38 3.3 93 93 N 8 13 29.91 1013 6 10 0.08 2.03
1:08 pm 13:08 Cloudy with Light Rain 40 4.4 38 3.3 93 93 N 9 15 29.92 1013 7 11 0.02 0.51
1:53 pm 13:53 Cloudy with Light Rain 39 3.9 37 2.8 93 93 NNE 12 19 29.88 1012 7 11 0.08 2.03
2:18 pm 14:18 Cloudy with Light Rain 39 3.9 37 2.8 93 93 NNE 12 19 29.89 1012 6 10 0.03 0.76
2:40 pm 14:40 Cloudy with Light Rain 39 3.9 37 2.8 93 93 N 12 19 29.88 1012 7 11 0.06 1.52
2:53 pm 14:53 Cloudy with Light Rain 39 3.9 36 2.2 89 89 NNE 15 24 29.87 1011 8 13 0.07 1.78
3:53 pm 15:53 Cloudy with Light Rain 38 3.3 35 1.7 89 89 N 10 17 29.86 1011 8 13 0.09 2.29
4:09 pm 16:09 Cloudy with Light Rain 38 3.3 35 1.7 89 89 N 14 22 29.87 1012 8 13 0.02 0.51
4:27 pm 16:27 Cloudy with Light Rain 38 3.3 35 1.7 89 89 N 13 20 29.87 1012 8 13 0.04 1.02
4:50 pm 16:50 Cloudy with Light Rain 37 3 34 1 87 87 NNE 16 26 29.87 1012 8 13 0.05 1.27
4:53 pm 16:53 Cloudy with Light Rain 37 2.8 34 1.1 89 89 NNE 14 22 29.86 1011 8 13 0.05 1.27
5:15 pm 17:15 Cloudy with Light Rain 37 2.8 34 1.1 89 89 N 14 22 29.89 1012 9 14 0.02 0.51
5:26 pm 17:26 Cloudy with Light Rain 37 2.8 35 1.7 93 93 N 14 22 29.89 1012 8 13 0.03 0.76
5:42 pm 17:42 Cloudy with Light Rain 37 2.8 34 1.1 89 89 N 16 26 29.90 1012 10 16 0.03 0.76
5:53 pm 17:53 Cloudy with Light Rain 37 2.8 35 1.7 93 93 N 13 20 29.88 1012 10 16 0.03 0.76
6:25 pm 18:25 Cloudy with Light Rain 38 3.3 35 1.7 89 89 N 12 19 29.92 1013 10 16 0.00 0.00
6:53 pm 18:53 Cloudy with Light Rain 38 3.3 35 1.7 89 89 N 16 26 29.92 1013 10 16 0.00 0.00
7:02 pm 19:02 Cloudy with Light Rain 38 3.3 35 1.7 89 89 N 15 24 29.93 1014 7 11 0.00 0.00
7:53 pm 19:53 Cloudy with Light Rain 37 2.8 34 1.1 89 89 N 13 20 29.94 1014 8 13 0.02 0.51
8:05 pm 20:05 Cloudy with Light Rain 37 2.8 34 1.1 89 89 N 16 26 29.97 1015 8 13 0.00 0.00
8:53 pm 20:53 Cloudy 37 2.8 33 0.6 86 86 N 17 28 29.96 1015 10 16 0.00 0.00
9:11 pm 21:11 Cloudy 36 2.2 33 0.6 89 89 N 17 28 29.99 1015 10 16 0.00 0.00
9:53 pm 21:53 Cloudy 36 2.2 31 -0.6 82 82 N 16 26 29.96 1015 10 16 0.00 0.00
10:53 pm 22:53 Cloudy 34 1.1 28 -2.2 79 79 N 17 28 30.00 1016 10 16 0.00 0.00
11:53 pm 23:53 Cloudy 33 0.6 26 -3.3 75 75 N 22 35 30.03 1017 10 16 0.00 0.00

Powered by AerisWeather